This demonstration page uses our WeatherBlox Daily Observations layout. Learn more.

Left ArrowRight Arrow

Hourly Observations for November 30, 2020

Temp ( °F °C ) Dew Point ( °F °C ) Humidity (%) Winds ( mph kmh ) Pressure ( in mb ) Visibility ( mi km ) Precip ( " mm )
12:52 am 00:52 Clear 24 -4.4 15 -9.4 68 68 VRB 3 6 30.39 1029 10 16 0.00 0.00
1:52 am 01:52 Clear 22 -5.6 15 -9.4 75 75 NNE 6 9 30.40 1029 10 16 0.00 0.00
2:52 am 02:52 Clear 20 -6.7 14 -10 78 78 N 8 13 30.40 1029 10 16 0.00 0.00
3:52 am 03:52 Clear 20 -6.7 14 -10 78 78 NNW 6 9 30.39 1029 10 16 0.00 0.00
4:52 am 04:52 Clear 17 -8.3 13 -10.6 84 84 NW 7 11 30.39 1029 10 16 0.00 0.00
5:52 am 05:52 Clear 17 -8.3 13 -10.6 84 84 NW 8 13 30.39 1029 10 16 0.00 0.00
6:52 am 06:52 Clear 18 -7.8 13 -10.6 81 81 NW 9 15 30.37 1028 10 16 0.00 0.00
7:52 am 07:52 Sunny 17 -8.3 13 -10.6 84 84 N 5 7 30.37 1028 10 16 0.00 0.00
8:52 am 08:52 Sunny 23 -5 15 -9.4 72 72 Calm 30.35 1028 10 16 0.00 0.00
9:52 am 09:52 Sunny 27 -2.8 16 -8.9 63 63 NW 3 6 30.34 1028 10 16 0.00 0.00
10:52 am 10:52 Sunny 30 -1.1 17 -8.3 58 58 VRB 6 9 30.33 1027 10 16 0.00 0.00
11:52 am 11:52 Sunny 35 1.7 16 -8.9 46 46 Calm 30.29 1026 10 16 0.00 0.00
12:52 pm 12:52 Sunny 37 2.8 17 -8.3 44 44 WSW 6 9 30.25 1024 10 16 0.00 0.00
1:52 pm 13:52 Sunny 39 3.9 16 -8.9 39 39 WNW 5 7 30.23 1024 10 16 0.00 0.00
2:52 pm 14:52 Sunny 39 3.9 14 -10 36 36 SW 5 7 30.19 1022 10 16 0.00 0.00
3:49 pm 15:49 Mostly Sunny 39 4 14 -10 36 36 SE 5 7 30.19 1022 10 16 0.00 0.00
3:52 pm 15:52 Mostly Sunny 39 3.9 14 -10 36 36 SE 5 7 30.18 1022 10 16 0.00 0.00
4:52 pm 16:52 Mostly Sunny 35 1.7 15 -9.4 44 44 SSE 7 11 30.17 1022 10 16 0.00 0.00
5:52 pm 17:52 Mostly Clear 28 -2.2 16 -8.9 60 60 SE 6 9 30.16 1021 10 16 0.00 0.00
6:52 pm 18:52 Clear 29 -1.7 17 -8.3 61 61 SE 6 9 30.16 1021 10 16 0.00 0.00
7:52 pm 19:52 Clear 28 -2.2 18 -7.8 66 66 S 3 6 30.15 1021 10 16 0.00 0.00
8:52 pm 20:52 Clear 27 -2.8 17 -8.3 66 66 S 5 7 30.14 1021 10 16 0.00 0.00
9:52 pm 21:52 Clear 26 -3.3 16 -8.9 66 66 SSE 3 6 30.13 1020 10 16 0.00 0.00
10:52 pm 22:52 Clear 25 -3.9 16 -8.9 69 69 SSE 7 11 30.13 1020 10 16 0.00 0.00
11:52 pm 23:52 Clear 23 -5 15 -9.4 72 72 SSE 8 13 30.11 1020 10 16 0.00 0.00

Powered by AerisWeather